CFG4864 EDDL-EDDP

Flight info

Callsign CFG4864
Flight time 0h 44m
Altitude 23000
Route NUDGO6T/23L NUDGO Z858 BERDI T958 KOJEC KOJEC1V
Aircraft A321/M-SDE3FGHIRWY/LB1

Departure

Time 2026-05-04 18:56
Airport Düsseldorf Airport (EDDL)

Arrival

Time 2026-05-04 19:41
Airport Leipzig/Halle Airport (EDDP)
Time Latitude Longitude Altitude Speed Heading
2026-05-04 18:06 51.27785 6.75905 137 ft 0 kts 90°
2026-05-04 18:36 51.27785 6.75901 137 ft 3 kts 90°
2026-05-04 18:36 51.27785 6.75859 137 ft 4 kts 84°
2026-05-04 18:37 51.27778 6.75821 137 ft 4 kts 40°
2026-05-04 18:37 51.27769 6.75813 137 ft 0 kts
2026-05-04 18:40 51.27807 6.75813 137 ft 11 kts
2026-05-04 18:40 51.27881 6.75816 137 ft 10 kts
2026-05-04 18:41 51.27947 6.75821 137 ft 9 kts
2026-05-04 18:41 51.28008 6.75825 137 ft 8 kts
2026-05-04 18:41 51.28052 6.75860 137 ft 7 kts 49°
2026-05-04 18:41 51.28079 6.75914 137 ft 5 kts 53°
2026-05-04 18:42 51.28080 6.75916 137 ft 0 kts 53°
2026-05-04 18:43 51.28081 6.75919 137 ft 3 kts 53°
2026-05-04 18:43 51.28106 6.75973 137 ft 7 kts 53°
2026-05-04 18:44 51.28142 6.76048 137 ft 9 kts 53°
2026-05-04 18:44 51.28174 6.76115 137 ft 16 kts 53°
2026-05-04 18:44 51.28278 6.76334 137 ft 21 kts 52°
2026-05-04 18:44 51.28388 6.76567 137 ft 28 kts 53°
2026-05-04 18:45 51.28505 6.76813 137 ft 28 kts 52°
2026-05-04 18:45 51.28620 6.77053 137 ft 27 kts 52°
2026-05-04 18:45 51.28735 6.77291 137 ft 27 kts 52°
2026-05-04 18:45 51.28846 6.77524 137 ft 26 kts 52°
2026-05-04 18:46 51.28954 6.77752 137 ft 25 kts 52°
2026-05-04 18:46 51.29060 6.77974 137 ft 25 kts 53°
2026-05-04 18:46 51.29148 6.78159 137 ft 14 kts 53°
2026-05-04 18:46 51.29194 6.78213 137 ft 0 kts 10°
2026-05-04 18:51 51.29195 6.78213 137 ft 1 kts 10°
2026-05-04 18:51 51.29216 6.78217 138 ft 3 kts
2026-05-04 18:51 51.29246 6.78201 138 ft 6 kts 328°
2026-05-04 18:51 51.29259 6.78186 138 ft 0 kts 324°
2026-05-04 18:54 51.29260 6.78185 138 ft 2 kts 324°
2026-05-04 18:55 51.29288 6.78153 139 ft 5 kts 324°
2026-05-04 18:55 51.29219 6.77834 136 ft 54 kts 232°
2026-05-04 18:55 51.28841 6.77046 134 ft 121 kts 232°
2026-05-04 18:56 51.28238 6.75795 319 ft 151 kts 229°
2026-05-04 18:56 51.27605 6.74444 926 ft 154 kts 229°
2026-05-04 18:56 51.26959 6.73058 1464 ft 160 kts 231°
2026-05-04 18:56 51.26260 6.71553 1811 ft 178 kts 231°
2026-05-04 18:57 51.25487 6.69892 2159 ft 194 kts 232°
2026-05-04 18:57 51.24641 6.68072 2473 ft 218 kts 232°
2026-05-04 18:57 51.23673 6.66009 2863 ft 243 kts 232°
2026-05-04 18:57 51.22458 6.64010 3518 ft 256 kts 209°
2026-05-04 18:58 51.20764 6.63374 4348 ft 260 kts 179°
2026-05-04 18:58 51.18944 6.63594 5291 ft 263 kts 174°
2026-05-04 18:58 51.17117 6.63937 6205 ft 266 kts 173°
2026-05-04 18:58 51.15302 6.64584 7036 ft 271 kts 155°
2026-05-04 18:59 51.13846 6.66485 7852 ft 278 kts 129°
2026-05-04 18:59 51.13107 6.69348 8770 ft 289 kts 101°
2026-05-04 18:59 51.13115 6.72616 9632 ft 296 kts 91°
2026-05-04 18:59 51.13233 6.75789 10302 ft 304 kts 90°
2026-05-04 19:00 51.13381 6.79417 10548 ft 329 kts 90°
2026-05-04 19:00 51.13535 6.83180 10736 ft 352 kts 89°
2026-05-04 19:00 51.13694 6.87162 11108 ft 367 kts 89°
2026-05-04 19:00 51.13856 6.91250 11801 ft 371 kts 89°
2026-05-04 19:01 51.14016 6.95337 12527 ft 375 kts 89°
2026-05-04 19:01 51.14174 6.99501 13260 ft 379 kts 89°
2026-05-04 19:01 51.14326 7.03700 13958 ft 383 kts 89°
2026-05-04 19:01 51.14475 7.07969 14595 ft 386 kts 89°
2026-05-04 19:02 51.14623 7.12260 15227 ft 390 kts 89°
2026-05-04 19:02 51.14771 7.16609 15790 ft 396 kts 89°
2026-05-04 19:02 51.14921 7.21012 16352 ft 400 kts 89°
2026-05-04 19:02 51.15073 7.25453 16949 ft 404 kts 89°
2026-05-04 19:03 51.15224 7.29944 17541 ft 407 kts 89°
2026-05-04 19:03 51.15371 7.34463 18132 ft 410 kts 89°
2026-05-04 19:03 51.15523 7.39030 18655 ft 414 kts 89°
2026-05-04 19:03 51.15807 7.43619 18917 ft 418 kts 82°
2026-05-04 19:04 51.16557 7.48101 18983 ft 421 kts 72°
2026-05-04 19:04 51.17618 7.52398 18988 ft 421 kts 70°
2026-05-04 19:04 51.18694 7.56724 19002 ft 421 kts 70°
2026-05-04 19:04 51.19764 7.61053 19002 ft 421 kts 70°
2026-05-04 19:05 51.20840 7.65447 19188 ft 425 kts 70°
2026-05-04 19:05 51.21909 7.69833 19696 ft 428 kts 70°
2026-05-04 19:05 51.22992 7.74281 20184 ft 431 kts 70°
2026-05-04 19:05 51.24087 7.78776 20672 ft 435 kts 70°
2026-05-04 19:06 51.25185 7.83295 21147 ft 438 kts 70°
2026-05-04 19:06 51.26289 7.87851 21623 ft 442 kts 70°
2026-05-04 19:06 51.27402 7.92445 22105 ft 445 kts 70°
2026-05-04 19:06 51.28521 7.97078 22587 ft 449 kts 70°
2026-05-04 19:07 51.29646 8.01747 22918 ft 452 kts 70°
2026-05-04 19:07 51.30762 8.06393 22990 ft 458 kts 70°
2026-05-04 19:07 51.31908 8.11183 22985 ft 461 kts 70°
2026-05-04 19:07 51.33053 8.15983 22975 ft 463 kts 70°
2026-05-04 19:08 51.34202 8.20812 22984 ft 465 kts 70°
2026-05-04 19:08 51.35423 8.25607 22983 ft 466 kts 65°
2026-05-04 19:08 51.36907 8.30234 22987 ft 466 kts 63°
2026-05-04 19:08 51.38393 8.34830 22987 ft 466 kts 63°
2026-05-04 19:09 51.39791 8.39501 22984 ft 465 kts 69°
2026-05-04 19:09 51.40754 8.44457 22995 ft 464 kts 78°
2026-05-04 19:09 51.41230 8.49652 22993 ft 463 kts 88°
2026-05-04 19:09 51.41251 8.54654 22997 ft 462 kts 93°
2026-05-04 19:10 51.41188 8.59800 22992 ft 461 kts 93°
2026-05-04 19:10 51.41129 8.64950 22980 ft 461 kts 93°
2026-05-04 19:10 51.41068 8.70086 22978 ft 461 kts 93°
2026-05-04 19:10 51.40986 8.75241 22974 ft 461 kts 96°
2026-05-04 19:11 51.40628 8.80341 22971 ft 459 kts 99°
2026-05-04 19:11 51.40220 8.85427 22971 ft 460 kts 99°
2026-05-04 19:11 51.39814 8.90504 22971 ft 460 kts 99°
2026-05-04 19:11 51.39412 8.95575 22971 ft 460 kts 99°
2026-05-04 19:12 51.39009 9.00652 22973 ft 460 kts 99°
2026-05-04 19:12 51.38617 9.10883 22970 ft 463 kts 89°
2026-05-04 19:12 51.38777 9.16041 22972 ft 463 kts 89°
2026-05-04 19:13 51.38935 9.21130 22972 ft 463 kts 89°
2026-05-04 19:13 51.39090 9.26294 22973 ft 463 kts 89°
2026-05-04 19:13 51.39238 9.31447 22973 ft 463 kts 89°
2026-05-04 19:13 51.39383 9.36617 22972 ft 463 kts 89°
2026-05-04 19:14 51.39524 9.41773 22994 ft 463 kts 89°
2026-05-04 19:14 51.39660 9.46920 22996 ft 463 kts 89°
2026-05-04 19:14 51.39796 9.52075 22995 ft 463 kts 89°
2026-05-04 19:14 51.39931 9.57224 22993 ft 463 kts 89°
2026-05-04 19:15 51.40062 9.62379 22977 ft 463 kts 90°
2026-05-04 19:15 51.40146 9.65782 22978 ft 463 kts 89°
2026-05-04 19:15 51.40316 9.72677 22978 ft 462 kts 89°
2026-05-04 19:15 51.40399 9.76088 22989 ft 462 kts 89°
2026-05-04 19:16 51.40523 9.81229 22984 ft 462 kts 89°
2026-05-04 19:16 51.40687 9.88045 22981 ft 462 kts 89°
2026-05-04 19:16 51.40772 9.91524 22977 ft 462 kts 89°
2026-05-04 19:16 51.40897 9.96656 22976 ft 462 kts 89°
2026-05-04 19:17 51.41017 10.01799 22975 ft 462 kts 89°
2026-05-04 19:17 51.41129 10.06881 22975 ft 462 kts 90°
2026-05-04 19:17 51.41239 10.12039 22957 ft 462 kts 89°
2026-05-04 19:17 51.41349 10.17176 22962 ft 462 kts 89°
2026-05-04 19:18 51.41461 10.22345 22854 ft 468 kts 89°
2026-05-04 19:18 51.41572 10.27573 22400 ft 469 kts 90°
2026-05-04 19:18 51.41676 10.32776 21597 ft 465 kts 90°
2026-05-04 19:18 51.41777 10.37921 20885 ft 460 kts 90°
2026-05-04 19:19 51.41873 10.43029 20173 ft 455 kts 90°
2026-05-04 19:19 51.41966 10.48066 19481 ft 450 kts 90°
2026-05-04 19:19 51.42171 10.53030 19112 ft 447 kts 83°
2026-05-04 19:19 51.42651 10.57962 18953 ft 446 kts 82°
2026-05-04 19:20 51.43131 10.62863 18984 ft 447 kts 83°
2026-05-04 19:20 51.43607 10.67808 18987 ft 447 kts 83°
2026-05-04 19:20 51.44079 10.72729 18987 ft 447 kts 83°
2026-05-04 19:20 51.44549 10.77650 18987 ft 447 kts 83°
2026-05-04 19:21 51.45013 10.82521 18987 ft 447 kts 83°
2026-05-04 19:21 51.45489 10.87522 18987 ft 447 kts 83°
2026-05-04 19:21 51.45951 10.92392 18987 ft 447 kts 83°
2026-05-04 19:21 51.46419 10.97318 18905 ft 445 kts 83°
2026-05-04 19:22 51.46880 11.02181 18265 ft 440 kts 83°
2026-05-04 19:22 51.47333 11.07015 17536 ft 435 kts 83°
2026-05-04 19:22 51.47775 11.11797 16833 ft 430 kts 83°
2026-05-04 19:22 51.48208 11.16490 16206 ft 424 kts 83°
2026-05-04 19:23 51.48635 11.21152 15571 ft 418 kts 83°
2026-05-04 19:23 51.49052 11.25739 14957 ft 413 kts 83°
2026-05-04 19:23 51.49459 11.30230 14720 ft 399 kts 83°
2026-05-04 19:23 51.49849 11.34547 14597 ft 382 kts 83°
2026-05-04 19:24 51.50221 11.38674 14476 ft 368 kts 84°
2026-05-04 19:24 51.50582 11.42675 14361 ft 354 kts 84°
2026-05-04 19:24 51.50928 11.46504 14235 ft 341 kts 84°
2026-05-04 19:24 51.51258 11.50181 14115 ft 330 kts 84°
2026-05-04 19:25 51.51530 11.53813 13958 ft 319 kts 86°
2026-05-04 19:25 51.51724 11.57336 13651 ft 315 kts 88°
2026-05-04 19:25 51.51878 11.60826 13277 ft 312 kts 88°
2026-05-04 19:25 51.52037 11.64247 12910 ft 310 kts 88°
2026-05-04 19:26 51.52209 11.67689 12499 ft 309 kts 87°
2026-05-04 19:26 51.52387 11.71127 12101 ft 308 kts 88°
2026-05-04 19:26 51.52548 11.74547 11687 ft 307 kts 88°
2026-05-04 19:26 51.52708 11.77967 11261 ft 307 kts 88°
2026-05-04 19:27 51.52874 11.81376 10906 ft 305 kts 87°
2026-05-04 19:27 51.53044 11.84756 10580 ft 301 kts 87°
2026-05-04 19:27 51.53210 11.88097 10225 ft 300 kts 88°
2026-05-04 19:27 51.53375 11.91427 9858 ft 298 kts 88°
2026-05-04 19:28 51.53533 11.94730 9465 ft 296 kts 88°
2026-05-04 19:28 51.53691 11.98029 9079 ft 294 kts 87°
2026-05-04 19:28 51.53854 12.01306 8664 ft 294 kts 87°
2026-05-04 19:28 51.54017 12.04549 8363 ft 291 kts 87°
2026-05-04 19:29 51.54180 12.07786 8104 ft 289 kts 87°
2026-05-04 19:29 51.54333 12.11003 7881 ft 288 kts 87°
2026-05-04 19:29 51.54483 12.14183 7676 ft 290 kts 87°
2026-05-04 19:29 51.54637 12.17432 7452 ft 292 kts 87°
2026-05-04 19:30 51.54789 12.20691 7272 ft 292 kts 87°
2026-05-04 19:30 51.54939 12.23957 7028 ft 294 kts 86°
2026-05-04 19:30 51.55090 12.27221 6790 ft 291 kts 86°
2026-05-04 19:30 51.55238 12.30417 6517 ft 285 kts 86°
2026-05-04 19:31 51.55386 12.33591 6202 ft 283 kts 86°
2026-05-04 19:31 51.55532 12.36722 5937 ft 280 kts 86°
2026-05-04 19:31 51.55677 12.39777 5712 ft 278 kts 86°
2026-05-04 19:31 51.55816 12.42865 5487 ft 277 kts 86°
2026-05-04 19:32 51.55947 12.45948 5272 ft 276 kts 86°
2026-05-04 19:32 51.56082 12.49030 5050 ft 277 kts 86°
2026-05-04 19:32 51.56222 12.52062 4837 ft 272 kts 86°
2026-05-04 19:32 51.56353 12.55078 4630 ft 263 kts 86°
2026-05-04 19:33 51.56472 12.57932 4421 ft 256 kts 86°
2026-05-04 19:33 51.56251 12.60659 4297 ft 243 kts 117°
2026-05-04 19:33 51.55198 12.62587 4106 ft 233 kts 150°
2026-05-04 19:33 51.53677 12.63287 3918 ft 227 kts 183°
2026-05-04 19:34 51.52149 12.62770 3706 ft 226 kts 195°
2026-05-04 19:34 51.50628 12.62130 3511 ft 225 kts 195°
2026-05-04 19:34 51.49108 12.61514 3328 ft 225 kts 194°
2026-05-04 19:34 51.47589 12.60894 3159 ft 224 kts 194°
2026-05-04 19:35 51.46094 12.60238 3016 ft 222 kts 198°
2026-05-04 19:35 51.44850 12.58945 3033 ft 213 kts 237°
2026-05-04 19:35 51.44492 12.56694 3030 ft 210 kts 276°
2026-05-04 19:35 51.44636 12.54398 3058 ft 205 kts 269°
2026-05-04 19:36 51.44511 12.52107 3062 ft 211 kts 264°
2026-05-04 19:36 51.44376 12.49825 3122 ft 201 kts 266°
2026-05-04 19:36 51.44290 12.47652 3015 ft 188 kts 268°
2026-05-04 19:36 51.44231 12.45637 2853 ft 176 kts 268°
2026-05-04 19:37 51.44151 12.43732 2578 ft 169 kts 266°
2026-05-04 19:37 51.44042 12.41879 2281 ft 163 kts 265°
2026-05-04 19:37 51.43936 12.40163 2116 ft 148 kts 266°
2026-05-04 19:37 51.43843 12.38553 1894 ft 142 kts 266°
2026-05-04 19:38 51.43774 12.36986 1675 ft 139 kts 270°
2026-05-04 19:38 51.43764 12.35442 1545 ft 140 kts 271°
2026-05-04 19:38 51.43701 12.33871 1396 ft 144 kts 267°
2026-05-04 19:38 51.43629 12.32245 1198 ft 148 kts 267°
2026-05-04 19:39 51.43553 12.30612 1001 ft 149 kts 266°
2026-05-04 19:39 51.43466 12.28939 793 ft 151 kts 264°
2026-05-04 19:39 51.43390 12.27262 591 ft 152 kts 266°
2026-05-04 19:39 51.43314 12.25587 460 ft 143 kts 264°
2026-05-04 19:40 51.43247 12.24204 434 ft 97 kts 266°
2026-05-04 19:40 51.43208 12.23364 449 ft 63 kts 265°
2026-05-04 19:40 51.43177 12.22683 438 ft 59 kts 266°
2026-05-04 19:40 51.43147 12.22060 425 ft 50 kts 265°
2026-05-04 19:41 51.43121 12.21679 433 ft 24 kts 245°
2026-05-04 19:41 51.43032 12.21511 423 ft 16 kts 228°
2026-05-04 19:41 51.42948 12.21375 420 ft 18 kts 225°
2026-05-04 19:41 51.42849 12.21271 431 ft 16 kts 197°
2026-05-04 19:42 51.42745 12.21225 433 ft 15 kts 195°
2026-05-04 19:42 51.42676 12.21195 425 ft 7 kts 195°
2026-05-04 19:42 51.42597 12.21161 433 ft 18 kts 195°
2026-05-04 19:42 51.42466 12.21103 443 ft 19 kts 195°
2026-05-04 19:43 51.42331 12.21045 433 ft 22 kts 194°
2026-05-04 19:43 51.42185 12.20983 429 ft 22 kts 197°
2026-05-04 19:43 51.42043 12.20920 423 ft 13 kts 191°
2026-05-04 19:43 51.41987 12.20958 426 ft 9 kts 109°
2026-05-04 19:44 51.41967 12.21079 426 ft 15 kts 103°
2026-05-04 19:44 51.41942 12.21232 431 ft 13 kts 107°
2026-05-04 19:44 51.41919 12.21360 429 ft 11 kts 105°
2026-05-04 19:44 51.41902 12.21466 433 ft 9 kts 103°
2026-05-04 19:45 51.41891 12.21541 431 ft 5 kts 104°
2026-05-04 19:45 51.41880 12.21598 426 ft 6 kts 107°
2026-05-04 19:45 51.41864 12.21680 427 ft 9 kts 108°
2026-05-04 19:45 51.41843 12.21796 439 ft 13 kts 107°
2026-05-04 19:46 51.41823 12.21927 430 ft 9 kts 104°
2026-05-04 19:46 51.41818 12.21955 433 ft 0 kts 104°
2026-05-04 19:46 51.41816 12.21968 440 ft 2 kts 105°
2026-05-04 19:46 51.41819 12.21984 435 ft 2 kts 68°
2026-05-04 19:47 51.41849 12.22008 439 ft 9 kts 17°
2026-05-04 19:47 51.41905 12.22033 439 ft 4 kts 15°
2026-05-04 19:47 51.41907 12.22034 440 ft 0 kts 15°
2026-05-04 19:47 51.41909 12.22035 441 ft 0 kts 15°